Regional Weather Roundup
Issued by NWS

Home | Current Version | Previous Version | Text Only | Print | Product List | Glossary Off
Versions: 1 2 3 4 5 6 7 8 9 10 11 12 13 14 15 16 17 18 19 20 21 22 23 24 25 26 27 28 29 30 31 32 33 34 35 36 37 38 39 40 41 42 43 44 45 46 47 48 49 50

000
ASUS43 KIND 011309
RWRIN

WEATHER ROUNDUP FOR INDIANA
NATIONAL WEATHER SERVICE INDIANAPOLIS IN
900 AM EDT SAT AUG 01 2015

NOTE: "FAIR" INDICATES FEW OR NO CLOUDS BELOW 12,000 FEET WITH NO
SIGNIFICANT WEATHER AND/OR OBSTRUCTIONS TO VISIBILITY.

* - STATION DOES NOT REPORT WEATHER SUCH AS PRECIPITATION OR FOG.

+ - STATION NOT QUALITY CONTROLLED BY THE NATIONAL WEATHER SERVICE.
    USE DATA WITH CAUTION...ESPECIALLY DEWPOINT AND RELATIVE
    HUMIDITY OBSERVATIONS.

INZ001>003-010>013-019-020-011400-
NORTHWEST INDIANA

CITY           SKY/WX    TMP DP  RH WIND       PRES   REMARKS
GARY /AIRPORT/ SUNNY     70  57  64 W10       30.00F
KNOX *+        SUNNY     64  55  72 CALM      30.00S
LA PORTE +     SUNNY     71  60  70 W5        30.01R
MICHIGAN CITY+ SUNNY     68  59  73 SW6       30.00S
MONTICELLO +   SUNNY     65  61  85 NW3       30.01S
RENSSELAER +   SUNNY     68  61  77 W6        30.02S
VALPARAISO     SUNNY     70  56  61 W6        30.01S

$$

LMZ046-743>745-011400-
SOUTHERN LAKE MICHIGAN

STATION/POSITION TIME  TEMP    WIND        PRES    WAVE
                       AIR SEA DIR/SP/G            HT
                 (UTC) (F)     (DEG/KT/KT) (MB)    (FT)
BURNS HARBOR     1200   69     220/  4/  6 1016.3R
MICHIGAN CITY    1200   72     250/ 13/ 15   N/A
5NW MICH CITY    1300   73 73  280/ 10/ 12   N/A     3

$$

INZ004-005-014>016-021>024-011400-
NORTH CENTRAL INDIANA

CITY           SKY/WX    TMP DP  RH WIND       PRES   REMARKS
ELKHART        SUNNY     68  63  83 W8        29.99
GOSHEN         SUNNY     68  62  81 W5        29.99S
LOGANSPORT +   SUNNY     66  52  59 NW5       30.03R
PERU/GRISSOM   SUNNY     67  58  72 NW9       30.01R
ROCHESTER +    SUNNY     70  57  64 NW6       30.01S
SOUTH BEND     SUNNY     71  62  73 W7        30.00R
WARSAW +       SUNNY     68  61  77 W5        30.01R

$$

INZ006>009-017-018-025>027-011400-
NORTHEAST INDIANA

CITY           SKY/WX    TMP DP  RH WIND       PRES   REMARKS
ANGOLA *+      SUNNY     68  61  77 NW6       29.98S
AUBURN +       SUNNY     68  59  73 W5        30.00R
FORT WAYNE     MOSUNNY   69  59  70 NW7       30.00R
HUNTINGTON +   SUNNY     67  59  74 W3        30.00S

$$

INZ028-029-035-036-043>045-051>053-011400-
WEST CENTRAL INDIANA

CITY           SKY/WX    TMP DP  RH WIND       PRES   REMARKS
CRAWFORDSVL +  SUNNY     65  58  79 CALM        N/A
GREENCASTLE +  SUNNY     68  54  60 NW5       30.04S
LAFAYETTE      SUNNY     66  60  81 W3        30.02S
TERRE HAUTE    SUNNY     69  60  73 N6        30.04R

$$

INZ030>032-037>040-046>048-054>057-064-065-011400-
CENTRAL INDIANA

CITY           SKY/WX    TMP DP  RH WIND       PRES   REMARKS
ANDERSON       SUNNY     66  55  68 NW7       30.03
FISHERS *+     SUNNY     70  61  73 NW5       30.03R
FRANKFORT +    SUNNY     68  65  93 CALM      30.04S
GREENWOOD *+   SUNNY     70  57  64 NW3       30.03R
INDIANAPOLIS   MOSUNNY   71  57  61 NW9       30.01R
-EAGLE CREEK   SUNNY     70  59  68 NW7       30.02R
KOKOMO *+      SUNNY     68  57  68 NW7       30.02S
MARION +       SUNNY     65  58  78 NW6       30.02R
MT COMFORT *+  SUNNY     70  61  73 N5        30.03R
SHELBYVILLE    SUNNY     70  61  73 N6        30.01R
ZIONSVILLE +   SUNNY     69  58  68 NW7       30.03S

$$

INZ033-034-041-042-049-050-058-059-011400-
EAST CENTRAL INDIANA

CITY           SKY/WX    TMP DP  RH WIND       PRES   REMARKS
MUNCIE         SUNNY     66  59  78 NW5       30.02R

$$

INZ060-061-067>069-081>083-085>088-011400-
SOUTHWEST INDIANA

CITY           SKY/WX    TMP DP  RH WIND       PRES   REMARKS
EVANSVILLE     SUNNY     78  63  59 N6        30.04R
HUNTINGBURG *+ SUNNY     73  64  73 N5        30.04R
WASHINGTON +   SUNNY     72  61  68 CALM      30.03R

$$

INZ062-063-066-070>080-084-089>092-011400-
SOUTH CENTRAL AND SOUTHEAST INDIANA

CITY           SKY/WX    TMP DP  RH WIND       PRES   REMARKS
BLOOMINGTON    SUNNY     71  62  73 N5        30.03R
MADISON *+     SUNNY     70  61  73 CALM      30.04S
NORTH VERNON + SUNNY     70  68  94 CALM      30.03R
SEYMOUR +      SUNNY     72  61  68 NW5       30.02R

$$



USA.gov is the U.S. government's official web portal to all federal, state and local government web resources and services.